User: anonymous   Login
Location: Daytona Beach
(29.2106°N, 81.0231°W)
Time: 08:09:14
(UTC-04:00)
Language:

RS-44 - Orbit

View from above orbital plane
View from above orbital plane
View from above satellite
View from above satellite

Ground track
Ground track

The orbit data is extracted from the following two-line orbital elements,

1 44909U 19096E   21263.85282949  .00000012  00000-0  66811-5 0  9992
2 44909  82.5218  49.4085 0216697 229.8874 128.3061 12.79711071 81023
Epoch (UTC): 20 September 2021 20:28:04
Eccentricity: 0.0216697
inclination: 82.5218°
perigee height: 1175 km
apogee height: 1510 km
right ascension of ascending node: 49.4085°
argument of perigee: 229.8874°
revolutions per day: 12.79711071
mean anomaly at epoch: 128.3061°
orbit number at epoch: 8102

The dashed part of the orbit path shows where the satellite is in the earth's shadow,  

DLR